Time,TemperatureF,DewpointF,PressureIn,WindDirection,WindDirectionDegrees,WindSpeedMPH,WindSpeedGustMPH,Humidity,HourlyPrecipIn,Conditions,Clouds,dailyrainin,SoftwareType,DateUTC
2013-05-10 00:00:00,53.2,52.7,29.94,NNE,22,0.0,0.0,98,0.00,,,0.00,VWS V14.01,2013-05-10 04:00:00,
2013-05-10 00:01:00,53.2,52.7,29.94,NNE,22,0.0,0.0,98,0.00,,,0.00,VWS V14.01,2013-05-10 04:01:00,
2013-05-10 00:02:00,53.2,52.7,29.94,NNE,22,0.0,0.0,98,0.00,,,0.00,VWS V14.01,2013-05-10 04:02:00,
2013-05-10 00:07:00,53.1,52.5,29.94,NNE,22,0.0,0.0,98,0.00,,,0.00,VWS V14.01,2013-05-10 04:07:00,
2013-05-10 00:12:00,53.1,52.5,29.94,NNE,22,0.0,0.0,98,0.00,,,0.00,VWS V14.01,2013-05-10 04:12:00,
2013-05-10 00:17:00,53.1,52.5,29.94,NNE,22,0.0,0.0,98,0.00,,,0.00,VWS V14.01,2013-05-10 04:17:00,
2013-05-10 00:22:00,53.1,52.5,29.94,NNE,22,0.0,0.0,98,0.00,,,0.00,VWS V14.01,2013-05-10 04:22:00,
2013-05-10 00:27:00,53.4,52.9,29.94,NNE,22,0.0,0.0,98,0.00,,,0.00,VWS V14.01,2013-05-10 04:27:00,
2013-05-10 00:32:00,53.8,53.2,29.94,NNE,22,0.0,0.0,98,0.00,,,0.00,VWS V14.01,2013-05-10 04:32:00,
2013-05-10 00:37:00,53.8,53.2,29.94,NNE,22,0.0,0.0,98,0.00,,,0.00,VWS V14.01,2013-05-10 04:37:00,
2013-05-10 00:42:00,54.0,53.4,29.94,NNW,338,0.0,0.0,98,0.00,,,0.00,VWS V14.01,2013-05-10 04:42:00,
2013-05-10 00:47:00,54.1,53.6,29.94,NNW,338,0.0,0.0,98,0.00,,,0.00,VWS V14.01,2013-05-10 04:47:00,
2013-05-10 00:52:00,54.3,53.8,29.94,NNW,338,0.0,0.0,98,0.00,,,0.00,VWS V14.01,2013-05-10 04:52:00,
2013-05-10 00:57:00,54.1,53.6,29.94,NNW,338,0.0,0.0,98,0.00,,,0.00,VWS V14.01,2013-05-10 04:57:00,
2013-05-10 01:03:00,54.0,53.4,29.94,NNW,338,0.0,0.0,98,0.00,,,0.00,VWS V14.01,2013-05-10 05:03:00,
2013-05-10 01:08:00,54.0,53.4,29.94,NNW,338,0.0,0.0,98,0.00,,,0.00,VWS V14.01,2013-05-10 05:08:00,
2013-05-10 01:13:00,54.0,53.4,29.94,NNW,338,0.0,0.0,98,0.00,,,0.00,VWS V14.01,2013-05-10 05:13:00,
2013-05-10 01:18:00,54.0,53.4,29.94,NNW,338,0.0,0.0,98,0.00,,,0.00,VWS V14.01,2013-05-10 05:18:00,
2013-05-10 01:23:00,54.0,53.4,29.94,NNW,338,0.0,0.0,98,0.00,,,0.00,VWS V14.01,2013-05-10 05:23:00,
2013-05-10 01:28:00,53.8,53.2,29.94,NNW,338,0.0,0.0,98,0.00,,,0.00,VWS V14.01,2013-05-10 05:28:00,
2013-05-10 01:33:00,53.8,53.2,29.94,NNW,338,0.0,0.0,98,0.00,,,0.00,VWS V14.01,2013-05-10 05:33:00,
2013-05-10 01:38:00,53.8,53.2,29.94,NNW,338,0.0,0.0,98,0.00,,,0.00,VWS V14.01,2013-05-10 05:38:00,
2013-05-10 01:43:00,53.6,53.0,29.94,NNW,338,0.0,0.0,98,0.00,,,0.00,VWS V14.01,2013-05-10 05:43:00,
2013-05-10 01:48:00,53.6,53.0,29.94,NNW,338,0.0,0.0,98,0.00,,,0.00,VWS V14.01,2013-05-10 05:48:00,
2013-05-10 01:53:00,53.8,53.2,29.94,NNW,338,0.0,0.0,98,0.00,,,0.00,VWS V14.01,2013-05-10 05:53:00,
2013-05-10 01:58:00,53.8,53.2,29.94,NW,315,0.0,0.0,98,0.00,,,0.00,VWS V14.01,2013-05-10 05:58:00,
2013-05-10 02:03:00,53.8,53.2,29.94,West,270,0.0,0.0,98,0.00,,,0.00,VWS V14.01,2013-05-10 06:03:00,
2013-05-10 02:08:00,53.8,53.2,29.94,West,270,0.0,0.0,98,0.00,,,0.00,VWS V14.01,2013-05-10 06:08:00,
2013-05-10 02:13:00,53.6,53.0,29.94,West,270,0.0,0.0,98,0.00,,,0.00,VWS V14.01,2013-05-10 06:13:00,
2013-05-10 02:19:00,53.4,52.9,29.94,NNW,338,0.0,0.0,98,0.00,,,0.00,VWS V14.01,2013-05-10 06:19:00,
2013-05-10 02:24:00,53.6,53.0,29.94,West,270,0.0,0.0,98,0.00,,,0.00,VWS V14.01,2013-05-10 06:24:00,
2013-05-10 02:29:00,53.6,53.0,29.94,West,270,0.0,0.0,98,0.00,,,0.00,VWS V14.01,2013-05-10 06:29:00,
2013-05-10 02:34:00,53.4,52.9,29.94,West,270,0.0,0.0,98,0.00,,,0.00,VWS V14.01,2013-05-10 06:34:00,
2013-05-10 02:39:00,53.4,52.9,29.94,West,270,0.0,0.0,98,0.00,,,0.00,VWS V14.01,2013-05-10 06:39:00,
2013-05-10 02:44:00,53.4,52.9,29.94,West,270,0.0,0.0,98,0.00,,,0.00,VWS V14.01,2013-05-10 06:44:00,
2013-05-10 02:49:00,53.2,52.7,29.94,West,270,0.0,0.0,98,0.00,,,0.00,VWS V14.01,2013-05-10 06:49:00,
2013-05-10 02:54:00,53.2,52.7,29.97,West,270,0.0,0.0,98,0.00,,,0.00,VWS V14.01,2013-05-10 06:54:00,
2013-05-10 02:59:00,53.2,52.7,29.97,West,270,0.0,0.0,98,0.00,,,0.00,VWS V14.01,2013-05-10 06:59:00,
2013-05-10 03:04:00,53.2,52.7,29.97,West,270,0.0,0.0,98,0.00,,,0.00,VWS V14.01,2013-05-10 07:04:00,
2013-05-10 03:10:00,53.2,52.7,29.97,West,270,0.0,0.0,98,0.00,,,0.00,VWS V14.01,2013-05-10 07:10:00,
2013-05-10 03:15:00,53.1,52.5,29.97,West,270,0.0,0.0,98,0.00,,,0.00,VWS V14.01,2013-05-10 07:15:00,
2013-05-10 03:20:00,52.9,52.3,29.97,West,270,0.0,0.0,98,0.00,,,0.00,VWS V14.01,2013-05-10 07:20:00,
2013-05-10 03:25:00,52.7,52.2,29.97,West,270,0.0,0.0,98,0.00,,,0.00,VWS V14.01,2013-05-10 07:25:00,
2013-05-10 03:30:00,52.7,52.2,29.97,West,270,0.0,0.0,98,0.00,,,0.00,VWS V14.01,2013-05-10 07:30:00,
2013-05-10 03:35:00,52.7,52.2,29.97,West,270,0.0,0.0,98,0.00,,,0.00,VWS V14.01,2013-05-10 07:35:00,
2013-05-10 03:40:00,52.5,52.0,29.97,West,270,0.0,0.0,98,0.00,,,0.00,VWS V14.01,2013-05-10 07:40:00,
2013-05-10 03:45:00,52.5,52.0,29.97,West,270,0.0,0.0,98,0.00,,,0.00,VWS V14.01,2013-05-10 07:45:00,
2013-05-10 03:50:00,52.5,52.0,29.97,West,270,0.0,0.0,98,0.00,,-RA,0.00,VWS V14.01,2013-05-10 07:50:00,
2013-05-10 03:55:00,52.5,52.0,29.97,West,270,0.0,0.0,98,0.00,,-RA,0.00,VWS V14.01,2013-05-10 07:55:00,
2013-05-10 04:00:00,52.3,51.8,29.97,West,270,0.0,0.0,98,0.00,,-RA,0.00,VWS V14.01,2013-05-10 08:00:00,
2013-05-10 04:05:00,52.3,51.8,29.97,West,270,0.0,0.0,98,0.00,,-RA,0.00,VWS V14.01,2013-05-10 08:05:00,
2013-05-10 04:10:00,52.2,51.6,29.97,West,270,0.0,0.0,98,0.00,,-RA,0.00,VWS V14.01,2013-05-10 08:10:00,
2013-05-10 04:15:00,52.2,51.6,29.97,West,270,0.0,0.0,98,0.00,,-RA,0.00,VWS V14.01,2013-05-10 08:15:00,
2013-05-10 04:20:00,52.2,51.6,29.97,West,270,0.0,0.0,98,0.00,,-RA,0.00,VWS V14.01,2013-05-10 08:20:00,
2013-05-10 04:25:00,52.2,51.6,29.97,West,270,0.0,0.0,98,0.00,,-RA,0.00,VWS V14.01,2013-05-10 08:25:00,
2013-05-10 04:30:00,52.0,51.4,29.97,West,270,0.0,0.0,98,0.00,,-RA,0.00,VWS V14.01,2013-05-10 08:30:00,
2013-05-10 04:35:00,51.8,51.3,29.97,West,270,0.0,0.0,98,0.00,,-RA,0.00,VWS V14.01,2013-05-10 08:35:00,
2013-05-10 04:40:00,51.8,51.3,29.97,West,270,0.0,0.0,98,0.00,,-RA,0.00,VWS V14.01,2013-05-10 08:40:00,
2013-05-10 04:45:00,51.6,51.1,29.97,West,270,0.0,0.0,98,0.00,,-RA,0.00,VWS V14.01,2013-05-10 08:45:00,
2013-05-10 04:50:00,51.6,51.1,29.97,West,270,0.0,0.0,98,0.00,,,0.00,VWS V14.01,2013-05-10 08:50:00,
2013-05-10 04:55:00,51.4,50.9,29.97,West,270,0.0,0.0,98,0.00,,,0.00,VWS V14.01,2013-05-10 08:55:00,
2013-05-10 05:00:00,51.4,50.9,29.97,West,270,0.0,0.0,98,0.00,,,0.00,VWS V14.01,2013-05-10 09:00:00,
2013-05-10 05:05:00,51.6,51.1,29.97,West,270,0.0,0.0,98,0.00,,,0.00,VWS V14.01,2013-05-10 09:05:00,
2013-05-10 05:10:00,51.6,51.1,29.97,West,270,0.0,0.0,98,0.00,,,0.00,VWS V14.01,2013-05-10 09:10:00,
2013-05-10 05:15:00,51.8,51.3,29.97,West,270,0.0,0.0,98,0.00,,,0.00,VWS V14.01,2013-05-10 09:15:00,
2013-05-10 05:20:00,52.0,51.4,29.97,West,270,0.0,0.0,98,0.00,,,0.00,VWS V14.01,2013-05-10 09:20:00,
2013-05-10 05:25:00,51.8,51.3,29.97,West,270,0.0,0.0,98,0.00,,,0.00,VWS V14.01,2013-05-10 09:25:00,
2013-05-10 05:30:00,52.0,51.4,29.97,West,270,0.0,0.0,98,0.00,,,0.00,VWS V14.01,2013-05-10 09:30:00,
2013-05-10 05:35:00,52.0,51.4,29.97,West,270,0.0,0.0,98,0.00,,,0.00,VWS V14.01,2013-05-10 09:35:00,
2013-05-10 05:40:00,52.0,51.4,30.00,West,270,0.0,0.0,98,0.00,,,0.00,VWS V14.01,2013-05-10 09:40:00,
2013-05-10 05:45:00,52.2,51.6,30.00,West,270,0.0,0.0,98,0.00,,,0.00,VWS V14.01,2013-05-10 09:45:00,
2013-05-10 05:50:00,52.3,51.8,30.00,NW,315,0.0,0.0,98,0.00,,-RA,0.00,VWS V14.01,2013-05-10 09:50:00,
2013-05-10 05:55:00,52.3,51.8,30.00,NW,315,0.0,0.0,98,0.00,,-RA,0.00,VWS V14.01,2013-05-10 09:55:00,
2013-05-10 06:00:00,52.3,51.8,30.00,NW,315,0.0,0.0,98,0.00,,-RA,0.00,VWS V14.01,2013-05-10 10:00:00,
2013-05-10 06:05:00,52.2,51.6,30.00,NW,315,0.0,0.0,98,0.00,,-RA,0.00,VWS V14.01,2013-05-10 10:05:00,
2013-05-10 06:10:00,52.0,51.4,30.00,NW,315,0.0,0.0,98,0.00,,-RA,0.00,VWS V14.01,2013-05-10 10:10:00,
2013-05-10 06:15:00,52.2,51.6,30.00,NW,315,0.0,0.0,98,0.00,,-RA,0.00,VWS V14.01,2013-05-10 10:15:00,
2013-05-10 06:20:00,52.2,51.6,30.00,NW,315,0.0,0.0,98,0.00,,-RA,0.00,VWS V14.01,2013-05-10 10:20:00,
2013-05-10 06:25:00,52.3,51.8,30.03,NW,315,0.0,0.0,98,0.00,,-RA,0.00,VWS V14.01,2013-05-10 10:25:00,
2013-05-10 06:30:00,52.5,52.0,30.03,NW,315,0.0,0.0,98,0.00,,-RA,0.00,VWS V14.01,2013-05-10 10:30:00,
2013-05-10 06:35:00,52.9,52.3,30.03,NW,315,0.0,0.0,98,0.00,,-RA,0.00,VWS V14.01,2013-05-10 10:35:00,
2013-05-10 06:40:00,53.1,52.5,30.03,NW,315,0.0,0.0,98,0.00,,-RA,0.00,VWS V14.01,2013-05-10 10:40:00,
2013-05-10 06:45:00,53.2,52.7,30.03,NW,315,0.0,0.0,98,0.00,,-RA,0.00,VWS V14.01,2013-05-10 10:45:00,
2013-05-10 06:51:00,53.6,53.0,30.03,NW,315,0.0,0.0,98,0.00,,,0.00,VWS V14.01,2013-05-10 10:51:00,
2013-05-10 06:56:00,53.8,53.2,30.00,NW,315,0.0,0.0,98,0.00,,,0.00,VWS V14.01,2013-05-10 10:56:00,
2013-05-10 07:01:00,54.1,53.6,30.00,NW,315,0.0,0.0,98,0.00,,,0.00,VWS V14.01,2013-05-10 11:01:00,
2013-05-10 07:06:00,54.5,54.0,30.00,NW,315,0.0,0.0,98,0.00,,,0.00,VWS V14.01,2013-05-10 11:06:00,
2013-05-10 07:11:00,54.7,54.1,30.03,North,0,0.0,0.0,98,0.00,,,0.00,VWS V14.01,2013-05-10 11:11:00,
2013-05-10 07:16:00,54.9,54.3,30.03,SSW,202,0.0,0.0,98,0.00,,,0.00,VWS V14.01,2013-05-10 11:16:00,
2013-05-10 08:20:00,62.8,62.2,30.03,SSW,202,0.0,0.0,98,0.04,,,0.04,VWS V14.01,2013-05-10 12:20:00,
2013-05-10 08:58:00,67.3,60.2,30.03,SW,225,0.0,0.0,78,0.00,,,0.04,VWS V14.01,2013-05-10 12:58:00,
2013-05-10 11:54:00,83.7,56.1,29.94,NW,315,2.7,5.4,39,0.00,,,0.04,VWS V14.01,2013-05-10 15:54:00,
2013-05-10 11:59:00,80.8,50.6,29.94,East,90,1.8,5.4,35,0.00,,,0.04,VWS V14.01,2013-05-10 15:59:00,
2013-05-10 12:04:00,79.2,51.4,29.94,South,180,0.0,0.0,38,0.00,,CLR,0.04,VWS V14.01,2013-05-10 16:04:00,
2013-05-10 12:09:00,81.7,54.3,29.97,South,180,0.0,0.0,39,0.00,,CLR,0.04,VWS V14.01,2013-05-10 16:09:00,
2013-05-10 12:14:00,83.5,55.2,29.97,SW,225,0.0,0.0,38,0.00,,CLR,0.04,VWS V14.01,2013-05-10 16:14:00,
2013-05-10 12:19:00,85.1,54.4,29.97,WNW,292,1.8,1.8,35,0.00,,CLR,0.04,VWS V14.01,2013-05-10 16:19:00,
2013-05-10 12:24:00,85.3,51.2,29.97,South,180,4.0,5.4,31,0.00,,CLR,0.04,VWS V14.01,2013-05-10 16:24:00,
2013-05-10 12:30:00,83.1,49.4,29.97,NW,315,0.0,4.5,31,0.00,,CLR,0.04,VWS V14.01,2013-05-10 16:30:00,
2013-05-10 12:35:00,81.5,48.8,29.97,SSW,202,0.0,0.0,32,0.00,,CLR,0.04,VWS V14.01,2013-05-10 16:35:00,
2013-05-10 12:40:00,80.2,48.5,29.97,South,180,1.8,1.8,33,0.00,,CLR,0.04,VWS V14.01,2013-05-10 16:40:00,
2013-05-10 12:45:00,82.2,51.1,29.97,WSW,248,0.0,0.0,34,0.00,,CLR,0.04,VWS V14.01,2013-05-10 16:45:00,
2013-05-10 12:50:00,84.2,52.8,29.97,WSW,248,4.0,4.0,34,0.00,,CLR,0.04,VWS V14.01,2013-05-10 16:50:00,
2013-05-10 12:55:00,82.6,49.8,29.94,NW,315,0.0,4.9,32,0.00,,CLR,0.04,VWS V14.01,2013-05-10 16:55:00,
2013-05-10 13:00:00,82.6,51.4,29.94,NW,315,2.7,2.7,34,0.00,,CLR,0.04,VWS V14.01,2013-05-10 17:00:00,
2013-05-10 13:05:00,84.2,52.0,29.94,NW,315,0.0,0.0,33,0.00,,CLR,0.04,VWS V14.01,2013-05-10 17:05:00,
2013-05-10 13:10:00,83.8,50.9,29.97,SSW,202,2.2,7.6,32,0.00,,CLR,0.04,VWS V14.01,2013-05-10 17:10:00,
2013-05-10 13:15:00,85.1,51.1,29.97,West,270,0.0,0.0,31,0.00,,CLR,0.04,VWS V14.01,2013-05-10 17:15:00,
2013-05-10 13:20:00,83.5,49.7,29.97,SW,225,6.3,6.7,31,0.00,,CLR,0.04,VWS V14.01,2013-05-10 17:20:00,
2013-05-10 13:25:00,84.9,51.8,29.94,South,180,2.7,2.7,32,0.00,,CLR,0.04,VWS V14.01,2013-05-10 17:25:00,
2013-05-10 13:30:00,86.2,52.0,29.94,West,270,0.0,0.0,31,0.00,,CLR,0.04,VWS V14.01,2013-05-10 17:30:00,
2013-05-10 13:35:00,86.7,52.5,29.94,North,0,2.2,6.3,31,0.00,,CLR,0.04,VWS V14.01,2013-05-10 17:35:00,
2013-05-10 13:40:00,84.2,50.3,29.97,SSE,158,0.0,0.0,31,0.00,,CLR,0.04,VWS V14.01,2013-05-10 17:40:00,
2013-05-10 13:45:00,82.4,49.6,29.97,ENE,68,0.0,0.0,32,0.00,,CLR,0.04,VWS V14.01,2013-05-10 17:45:00,
2013-05-10 13:50:00,81.3,48.7,29.97,SE,135,0.0,7.6,32,0.00,,CLR,0.04,VWS V14.01,2013-05-10 17:50:00,
2013-05-10 13:55:00,81.1,49.3,29.97,NW,315,4.9,4.9,33,0.00,,CLR,0.04,VWS V14.01,2013-05-10 17:55:00,
2013-05-10 14:00:00,81.3,49.5,29.97,NW,315,0.0,0.0,33,0.00,,CLR,0.04,VWS V14.01,2013-05-10 18:00:00,
2013-05-10 14:05:00,81.5,50.5,29.97,SW,225,2.7,5.4,34,0.00,,CLR,0.04,VWS V14.01,2013-05-10 18:05:00,
2013-05-10 14:10:00,81.7,50.6,29.94,West,270,0.0,0.0,34,0.00,,CLR,0.04,VWS V14.01,2013-05-10 18:10:00,
2013-05-10 14:15:00,81.1,50.1,29.94,NW,315,0.0,0.0,34,0.00,,CLR,0.04,VWS V14.01,2013-05-10 18:15:00,
2013-05-10 14:20:00,81.0,50.0,29.94,NW,315,0.0,0.0,34,0.00,,CLR,0.04,VWS V14.01,2013-05-10 18:20:00,
2013-05-10 14:26:00,81.0,50.0,29.94,WNW,292,0.0,0.0,34,0.00,,CLR,0.04,VWS V14.01,2013-05-10 18:26:00,
2013-05-10 14:31:00,81.7,52.2,29.94,South,180,0.0,0.0,36,0.00,,CLR,0.04,VWS V14.01,2013-05-10 18:31:00,
2013-05-10 14:36:00,81.7,50.6,29.94,West,270,0.0,0.0,34,0.00,,CLR,0.04,VWS V14.01,2013-05-10 18:36:00,
2013-05-10 14:41:00,82.8,51.6,29.94,West,270,0.0,0.0,34,0.00,,CLR,0.04,VWS V14.01,2013-05-10 18:41:00,
2013-05-10 14:46:00,82.4,51.2,29.94,NE,45,3.1,3.1,34,0.00,,CLR,0.04,VWS V14.01,2013-05-10 18:46:00,
2013-05-10 14:51:00,82.6,52.2,29.94,West,270,0.0,0.0,35,0.00,,CLR,0.04,VWS V14.01,2013-05-10 18:51:00,
2013-05-10 14:56:00,83.1,51.9,29.94,West,270,0.0,0.0,34,0.00,,CLR,0.04,VWS V14.01,2013-05-10 18:56:00,
2013-05-10 15:01:00,82.4,51.2,29.94,West,270,0.0,0.0,34,0.00,,CLR,0.04,VWS V14.01,2013-05-10 19:01:00,
2013-05-10 15:06:00,82.4,51.2,29.94,SW,225,0.0,0.0,34,0.00,,CLR,0.04,VWS V14.01,2013-05-10 19:06:00,
2013-05-10 15:11:00,82.6,50.6,29.94,West,270,0.0,0.0,33,0.00,,CLR,0.04,VWS V14.01,2013-05-10 19:11:00,
2013-05-10 15:16:00,83.1,51.1,29.94,North,0,0.0,0.0,33,0.00,,CLR,0.04,VWS V14.01,2013-05-10 19:16:00,
2013-05-10 15:21:00,82.9,50.9,29.94,SW,225,0.0,0.0,33,0.00,,CLR,0.04,VWS V14.01,2013-05-10 19:21:00,
2013-05-10 15:26:00,83.3,52.0,29.91,West,270,0.0,0.0,34,0.00,,CLR,0.04,VWS V14.01,2013-05-10 19:26:00,
2013-05-10 15:31:00,83.5,52.2,29.91,NW,315,0.0,2.7,34,0.00,,CLR,0.04,VWS V14.01,2013-05-10 19:31:00,
2013-05-10 15:36:00,82.9,50.9,29.91,SE,135,0.0,0.0,33,0.00,,CLR,0.04,VWS V14.01,2013-05-10 19:36:00,
2013-05-10 15:41:00,82.0,50.9,29.88,West,270,0.0,0.0,34,0.00,,CLR,0.04,VWS V14.01,2013-05-10 19:41:00,
2013-05-10 15:47:00,81.5,50.5,29.88,SE,135,2.2,2.2,34,0.00,,CLR,0.04,VWS V14.01,2013-05-10 19:47:00,
2013-05-10 15:51:00,81.9,50.8,29.88,South,180,0.0,0.0,34,0.00,,CLR,0.04,VWS V14.01,2013-05-10 19:51:00,
2013-05-10 15:56:00,81.9,51.5,29.88,South,180,0.0,0.0,35,0.00,,CLR,0.04,VWS V14.01,2013-05-10 19:56:00,
2013-05-10 16:02:00,82.0,52.5,29.88,WSW,248,0.0,0.0,36,0.00,,CLR,0.04,VWS V14.01,2013-05-10 20:02:00,
2013-05-10 16:07:00,81.5,52.0,29.88,North,0,0.0,2.7,36,0.00,,CLR,0.04,VWS V14.01,2013-05-10 20:07:00,
2013-05-10 16:12:00,81.7,52.9,29.91,West,270,0.0,0.0,37,0.00,,CLR,0.04,VWS V14.01,2013-05-10 20:12:00,
2013-05-10 16:17:00,81.3,51.1,29.91,SE,135,0.0,4.5,35,0.00,,CLR,0.04,VWS V14.01,2013-05-10 20:17:00,
2013-05-10 16:22:00,81.0,51.5,29.91,SSE,158,0.0,0.0,36,0.00,,CLR,0.04,VWS V14.01,2013-05-10 20:22:00,
2013-05-10 16:27:00,81.1,51.7,29.91,SE,135,0.0,0.0,36,0.00,,CLR,0.04,VWS V14.01,2013-05-10 20:27:00,
2013-05-10 16:32:00,80.8,52.1,29.91,South,180,0.0,0.0,37,0.00,,CLR,0.04,VWS V14.01,2013-05-10 20:32:00,
2013-05-10 16:37:00,80.6,52.7,29.91,ENE,68,0.0,0.0,38,0.00,,CLR,0.04,VWS V14.01,2013-05-10 20:37:00,
2013-05-10 16:42:00,80.4,51.8,29.91,SSW,202,0.0,0.0,37,0.00,,CLR,0.04,VWS V14.01,2013-05-10 20:42:00,
2013-05-10 16:47:00,79.2,51.4,29.91,ESE,112,0.0,0.0,38,0.00,,CLR,0.04,VWS V14.01,2013-05-10 20:47:00,
2013-05-10 16:52:00,78.1,51.8,29.91,West,270,0.0,0.0,40,0.00,,SCT120,0.04,VWS V14.01,2013-05-10 20:52:00,
2013-05-10 16:57:00,77.4,51.2,29.94,West,270,0.0,0.0,40,0.00,,SCT120,0.04,VWS V14.01,2013-05-10 20:57:00,
2013-05-10 17:02:00,76.5,51.0,29.94,SSE,158,0.0,0.0,41,0.00,,SCT120,0.04,VWS V14.01,2013-05-10 21:02:00,
2013-05-10 17:07:00,75.6,50.2,29.94,South,180,0.0,0.0,41,0.00,,SCT120,0.04,VWS V14.01,2013-05-10 21:07:00,
2013-05-10 17:12:00,75.2,50.6,29.91,SSE,158,0.0,0.0,42,0.00,,SCT120,0.04,VWS V14.01,2013-05-10 21:12:00,
2013-05-10 17:17:00,75.0,51.0,29.91,SSE,158,0.0,0.0,43,0.00,,SCT120,0.04,VWS V14.01,2013-05-10 21:17:00,
2013-05-10 17:22:00,74.8,50.9,29.91,South,180,0.0,0.0,43,0.00,,SCT120,0.04,VWS V14.01,2013-05-10 21:22:00,
2013-05-10 17:27:00,74.8,50.9,29.91,South,180,0.0,0.0,43,0.00,,SCT120,0.04,VWS V14.01,2013-05-10 21:27:00,
2013-05-10 17:32:00,74.7,51.3,29.91,South,180,0.0,0.0,44,0.00,,SCT120,0.04,VWS V14.01,2013-05-10 21:32:00,
2013-05-10 17:37:00,74.5,51.2,29.91,South,180,0.0,0.0,44,0.00,,SCT120,0.04,VWS V14.01,2013-05-10 21:37:00,
2013-05-10 17:43:00,74.3,51.6,29.91,South,180,0.0,0.0,45,0.00,,SCT120,0.04,VWS V14.01,2013-05-10 21:43:00,
2013-05-10 17:48:00,74.1,52.0,29.91,South,180,0.0,0.0,46,0.00,,SCT120,0.04,VWS V14.01,2013-05-10 21:48:00,
2013-05-10 17:53:00,74.1,52.0,29.91,SSE,158,0.0,0.0,46,0.00,,OVC100,0.04,VWS V14.01,2013-05-10 21:53:00,
2013-05-10 17:58:00,73.9,51.9,29.91,SSE,158,0.0,0.0,46,0.00,,OVC100,0.04,VWS V14.01,2013-05-10 21:58:00,
2013-05-10 18:03:00,73.8,51.7,29.91,SSE,158,0.0,0.0,46,0.00,,OVC100,0.04,VWS V14.01,2013-05-10 22:03:00,
2013-05-10 18:08:00,73.6,51.5,29.91,SSE,158,0.0,0.0,46,0.00,,OVC100,0.04,VWS V14.01,2013-05-10 22:08:00,
2013-05-10 18:13:00,73.4,52.0,29.88,SSE,158,0.0,0.0,47,0.00,,OVC100,0.04,VWS V14.01,2013-05-10 22:13:00,
2013-05-10 18:19:00,73.2,51.8,29.88,SSE,158,0.0,0.0,47,0.00,,OVC100,0.04,VWS V14.01,2013-05-10 22:19:00,
2013-05-10 18:24:00,72.9,52.0,29.88,SE,135,0.0,0.0,48,0.00,,OVC100,0.04,VWS V14.01,2013-05-10 22:24:00,
2013-05-10 18:29:00,72.5,52.3,29.88,SE,135,0.0,0.0,49,0.00,,OVC100,0.04,VWS V14.01,2013-05-10 22:29:00,
2013-05-10 18:34:00,72.0,51.8,29.88,SE,135,0.0,0.0,49,0.00,,OVC100,0.04,VWS V14.01,2013-05-10 22:34:00,
2013-05-10 18:39:00,71.4,51.8,29.88,SE,135,0.0,0.0,50,0.00,,OVC100,0.04,VWS V14.01,2013-05-10 22:39:00,
2013-05-10 18:44:00,70.9,52.9,29.88,SE,135,0.0,0.0,53,0.00,,OVC100,0.04,VWS V14.01,2013-05-10 22:44:00,
2013-05-10 18:49:00,70.3,53.9,29.88,North,0,0.0,0.0,56,0.00,,OVC100,0.04,VWS V14.01,2013-05-10 22:49:00,
2013-05-10 18:54:00,69.8,53.9,29.91,NNE,22,0.0,0.0,57,0.00,,BKN100,0.04,VWS V14.01,2013-05-10 22:54:00,
2013-05-10 18:59:00,69.6,54.2,29.91,ENE,68,0.0,0.0,58,0.00,,BKN100,0.04,VWS V14.01,2013-05-10 22:59:00,
2013-05-10 19:04:00,69.4,54.5,29.91,North,0,0.0,0.0,59,0.00,,BKN100,0.04,VWS V14.01,2013-05-10 23:04:00,
2013-05-10 19:09:00,69.3,55.7,29.91,West,270,2.7,8.1,62,0.00,,BKN100,0.04,VWS V14.01,2013-05-10 23:09:00,
2013-05-10 19:14:00,69.1,54.6,29.91,SW,225,0.0,0.0,60,0.00,,BKN100,0.04,VWS V14.01,2013-05-10 23:14:00,
2013-05-10 19:19:00,68.9,54.9,29.91,East,90,0.0,0.0,61,0.00,,BKN100,0.04,VWS V14.01,2013-05-10 23:19:00,
2013-05-10 19:24:00,68.5,54.6,29.91,East,90,0.0,0.0,61,0.00,,BKN100,0.04,VWS V14.01,2013-05-10 23:24:00,
2013-05-10 19:29:00,68.4,55.3,29.91,NE,45,0.0,0.0,63,0.00,,BKN100,0.04,VWS V14.01,2013-05-10 23:29:00,
2013-05-10 19:34:00,68.4,54.8,29.91,NE,45,0.0,0.0,62,0.00,,BKN100,0.04,VWS V14.01,2013-05-10 23:34:00,
2013-05-10 19:39:00,68.2,55.1,29.88,ENE,68,0.0,0.0,63,0.00,,BKN100,0.04,VWS V14.01,2013-05-10 23:39:00,
2013-05-10 19:44:00,68.0,55.0,29.88,NE,45,0.0,0.0,63,0.00,,BKN100,0.04,VWS V14.01,2013-05-10 23:44:00,
2013-05-10 19:49:00,67.8,55.6,29.88,NNE,22,0.0,0.0,65,0.00,,BKN100,0.04,VWS V14.01,2013-05-10 23:49:00,
2013-05-10 19:54:00,67.5,55.3,29.88,East,90,0.0,0.0,65,0.00,,BKN085,0.04,VWS V14.01,2013-05-10 23:54:00,
2013-05-10 19:59:00,67.3,55.5,29.88,East,90,0.0,0.0,66,0.00,,BKN085,0.04,VWS V14.01,2013-05-10 23:59:00,
2013-05-10 20:04:00,66.9,55.6,29.88,NE,45,0.0,0.0,67,0.00,,BKN085,0.04,VWS V14.01,2013-05-11 00:04:00,
2013-05-10 20:09:00,66.6,55.3,29.85,East,90,0.0,0.0,67,0.00,,BKN085,0.04,VWS V14.01,2013-05-11 00:09:00,
2013-05-10 20:14:00,66.2,54.9,29.85,East,90,0.0,0.0,67,0.00,,BKN085,0.04,VWS V14.01,2013-05-11 00:14:00,
2013-05-10 20:19:00,66.0,55.2,29.85,ENE,68,0.0,0.0,68,0.00,,BKN085,0.04,VWS V14.01,2013-05-11 00:19:00,
2013-05-10 20:25:00,65.8,55.4,29.88,ENE,68,0.0,0.0,69,0.00,,FEW100,0.04,VWS V14.01,2013-05-11 00:25:00,
2013-05-10 20:30:00,65.7,55.2,29.88,East,90,0.0,0.0,69,0.00,,FEW100,0.04,VWS V14.01,2013-05-11 00:30:00,
2013-05-10 20:35:00,65.5,55.5,29.88,ENE,68,0.0,0.0,70,0.00,,FEW100,0.04,VWS V14.01,2013-05-11 00:35:00,
2013-05-10 20:40:00,65.5,55.8,29.88,NE,45,0.0,0.0,71,0.00,,FEW100,0.04,VWS V14.01,2013-05-11 00:40:00,
2013-05-10 20:45:00,65.1,55.5,29.88,East,90,0.0,0.0,71,0.00,,FEW100,0.04,VWS V14.01,2013-05-11 00:45:00,
2013-05-10 20:50:00,64.9,55.3,29.88,ENE,68,0.0,0.0,71,0.00,,FEW100,0.04,VWS V14.01,2013-05-11 00:50:00,
2013-05-10 20:55:00,64.8,55.2,29.85,ENE,68,0.0,0.0,71,0.00,,FEW100,0.04,VWS V14.01,2013-05-11 00:55:00,
2013-05-10 21:00:00,64.8,55.2,29.85,East,90,0.0,0.0,71,0.00,,FEW100,0.04,VWS V14.01,2013-05-11 01:00:00,
2013-05-10 21:05:00,64.6,55.0,29.85,ENE,68,0.0,0.0,71,0.00,,FEW100,0.04,VWS V14.01,2013-05-11 01:05:00,
2013-05-10 21:10:00,64.6,55.4,29.85,ENE,68,0.0,0.0,72,0.00,,FEW100,0.04,VWS V14.01,2013-05-11 01:10:00,
2013-05-10 21:15:00,64.4,55.2,29.85,NE,45,0.0,0.0,72,0.00,,FEW100,0.04,VWS V14.01,2013-05-11 01:15:00,
2013-05-10 21:20:00,64.6,55.4,29.85,NE,45,0.0,0.0,72,0.00,,FEW100,0.04,VWS V14.01,2013-05-11 01:20:00,
2013-05-10 21:25:00,64.8,55.5,29.85,ENE,68,0.0,0.0,72,0.00,,FEW100,0.04,VWS V14.01,2013-05-11 01:25:00,
2013-05-10 21:30:00,64.9,55.7,29.85,SE,135,7.6,8.1,72,0.00,,FEW100,0.04,VWS V14.01,2013-05-11 01:30:00,
2013-05-10 21:35:00,64.9,55.3,29.85,ENE,68,0.0,0.0,71,0.00,,FEW100,0.04,VWS V14.01,2013-05-11 01:35:00,
2013-05-10 21:40:00,64.9,55.3,29.85,East,90,5.8,5.8,71,0.00,,FEW100,0.04,VWS V14.01,2013-05-11 01:40:00,
2013-05-10 21:45:00,65.1,55.1,29.85,NE,45,0.0,0.0,70,0.00,,FEW100,0.04,VWS V14.01,2013-05-11 01:45:00,
2013-05-10 21:50:00,65.3,55.3,29.85,ENE,68,0.0,0.0,70,0.00,,CLR,0.04,VWS V14.01,2013-05-11 01:50:00,
2013-05-10 21:55:00,65.3,55.3,29.85,ENE,68,0.0,7.2,70,0.00,,CLR,0.04,VWS V14.01,2013-05-11 01:55:00,
2013-05-10 22:00:00,65.5,55.0,29.85,East,90,0.0,0.0,69,0.00,,CLR,0.04,VWS V14.01,2013-05-11 02:00:00,
2013-05-10 22:05:00,65.3,54.9,29.85,NNE,22,0.0,0.0,69,0.00,,CLR,0.04,VWS V14.01,2013-05-11 02:05:00,
2013-05-10 22:10:00,65.1,54.7,29.85,East,90,0.0,3.1,69,0.00,,CLR,0.04,VWS V14.01,2013-05-11 02:10:00,
2013-05-10 22:15:00,65.1,54.7,29.85,NE,45,0.0,0.0,69,0.00,,CLR,0.04,VWS V14.01,2013-05-11 02:15:00,
2013-05-10 22:20:00,65.1,54.7,29.85,NE,45,4.9,4.9,69,0.00,,CLR,0.04,VWS V14.01,2013-05-11 02:20:00,
2013-05-10 22:25:00,64.9,54.5,29.85,ENE,68,0.0,0.0,69,0.00,,CLR,0.04,VWS V14.01,2013-05-11 02:25:00,
2013-05-10 22:31:00,64.8,54.4,29.85,ESE,112,5.8,5.8,69,0.00,,CLR,0.04,VWS V14.01,2013-05-11 02:31:00,
2013-05-10 22:36:00,64.8,54.0,29.85,ENE,68,0.0,0.0,68,0.00,,CLR,0.04,VWS V14.01,2013-05-11 02:36:00,
2013-05-10 22:41:00,64.6,54.2,29.85,NE,45,0.0,0.0,69,0.00,,CLR,0.04,VWS V14.01,2013-05-11 02:41:00,
2013-05-10 22:46:00,64.6,54.2,29.85,NE,45,0.0,0.0,69,0.00,,CLR,0.04,VWS V14.01,2013-05-11 02:46:00,
2013-05-10 22:51:00,64.4,54.0,29.85,East,90,0.0,0.0,69,0.00,,CLR,0.04,VWS V14.01,2013-05-11 02:51:00,
2013-05-10 22:56:00,64.2,53.8,29.82,NNE,22,0.0,0.0,69,0.00,,CLR,0.04,VWS V14.01,2013-05-11 02:56:00,
2013-05-10 23:01:00,64.0,53.7,29.82,North,0,0.0,0.0,69,0.00,,CLR,0.04,VWS V14.01,2013-05-11 03:01:00,
2013-05-10 23:06:00,63.9,53.9,29.82,North,0,0.0,0.0,70,0.00,,CLR,0.04,VWS V14.01,2013-05-11 03:06:00,
2013-05-10 23:11:00,63.7,54.1,29.85,North,0,0.0,0.0,71,0.00,,CLR,0.04,VWS V14.01,2013-05-11 03:11:00,
2013-05-10 23:16:00,63.3,53.8,29.85,NE,45,0.0,0.0,71,0.00,,CLR,0.00,VWS V14.01,2013-05-11 03:16:00,
2013-05-10 23:21:00,63.1,53.2,29.85,North,0,0.0,0.0,70,0.00,,CLR,0.00,VWS V14.01,2013-05-11 03:21:00,
2013-05-10 23:26:00,63.0,53.8,29.82,North,0,0.0,0.0,72,0.00,,CLR,0.00,VWS V14.01,2013-05-11 03:26:00,
2013-05-10 23:31:00,62.6,53.5,29.82,North,0,0.0,0.0,72,0.00,,CLR,0.00,VWS V14.01,2013-05-11 03:31:00,
2013-05-10 23:37:00,62.4,53.7,29.82,North,0,0.0,0.0,73,0.00,,CLR,0.00,VWS V14.01,2013-05-11 03:37:00,
2013-05-10 23:42:00,62.2,53.5,29.85,North,0,0.0,0.0,73,0.00,,CLR,0.00,VWS V14.01,2013-05-11 03:42:00,
2013-05-10 23:47:00,62.1,53.3,29.85,North,0,0.0,0.0,73,0.00,,CLR,0.00,VWS V14.01,2013-05-11 03:47:00,
2013-05-10 23:52:00,62.1,53.7,29.85,North,0,0.0,0.0,74,0.00,,CLR,0.00,VWS V14.01,2013-05-11 03:52:00,
2013-05-10 23:57:00,62.1,54.0,29.85,North,0,0.0,0.0,75,0.00,,CLR,0.00,VWS V14.01,2013-05-11 03:57:00,